GW7820 Weather Reports


Display with metric or nautical units.
time (UTC)temp
F
wind
direction
speed
MPH
gust
MPH
rain 1hr
in
rain 24hr
in
rain mn
in
humidity
%
barometer
mb
20260902122736 72 80 2.0 6.0 0.00 0.00 0.00 94 1020.7
20260902122235 71 80 1.0 6.0 0.00 0.00 0.00 96 1020.7
20260902121736 71 79 3.0 5.0 0.00 0.00 0.00 97 1020.4
20260902121236 70 67 2.0 5.0 0.00 0.00 0.00 97 1020.7
20260902120735 70 91 2.0 5.0 0.00 0.00 0.00 97 1020.7
20260902120236 70 112 4.0 5.0 0.00 0.00 0.00 97 1020.4
20260902115736 70 119 2.0 4.0 0.00 0.00 0.00 97 1020.4
20260902115236 70 107 2.0 4.0 0.00 0.00 0.00 97 1020.4
20260902114736 70 104 3.0 4.0 0.00 0.00 0.00 97 1020.4
20260902114236 70 130 2.0 4.0 0.00 0.00 0.00 97 1020.4
20260902113736 70 101 2.0 5.0 0.00 0.00 0.00 97 1020.4
20260902113236 70 91 2.0 5.0 0.00 0.00 0.00 97 1020.4
20260902112736 70 85 3.0 5.0 0.00 0.00 0.00 97 1020.4
20260902112236 70 112 2.0 5.0 0.00 0.00 0.00 97 1020.4
20260902111736 70 100 2.0 5.0 0.00 0.00 0.00 97 1020.4
20260902111236 70 101 2.0 5.0 0.00 0.00 0.00 97 1020.0
20260902110736 70 108 3.0 5.0 0.00 0.00 0.00 97 1020.0
20260902110236 70 122 2.0 5.0 0.00 0.00 0.00 97 1020.0
20260902105735 70 85 2.0 5.0 0.00 0.00 0.00 97 1020.0
20260902105236 70 32 3.0 5.0 0.00 0.00 0.00 97 1019.7
20260902104737 70 114 2.0 5.0 0.00 0.00 0.00 97 1019.7
20260902104235 70 81 1.0 5.0 0.00 0.00 0.00 98 1019.7
20260902103736 70 196 2.0 5.0 0.00 0.00 0.00 98 1019.7
20260902103236 70 88 2.0 5.0 0.00 0.00 0.00 98 1019.7
20260902102736 70 78 2.0 5.0 0.00 0.00 0.00 98 1019.7
20260902102235 70 124 4.0 5.0 0.00 0.00 0.00 97 1019.7
20260902101737 70 95 2.0 5.0 0.00 0.00 0.00 97 1019.3
20260902101236 70 119 3.0 6.0 0.00 0.00 0.00 97 1019.7
20260902100736 70 97 2.0 6.0 0.00 0.00 0.00 97 1019.3
20260902100235 70 71 6.0 6.0 0.00 0.00 0.00 97 1019.7
20260902095736 70 117 2.0 5.0 0.00 0.00 0.00 97 1019.3
20260902095235 70 122 1.0 6.0 0.00 0.00 0.00 97 1019.3
20260902094736 70 118 2.0 6.0 0.00 0.00 0.00 97 1019.3
20260902094236 70 91 2.0 3.0 0.00 0.00 0.00 97 1019.3
20260902093736 70 102 2.0 3.0 0.00 0.00 0.00 97 1019.3
20260902093235 70 98 2.0 3.0 0.00 0.00 0.00 97 1019.3
20260902092736 70 100 2.0 2.0 0.00 0.00 0.00 97 1019.3
20260902092236 70 98 2.0 3.0 0.00 0.00 0.00 97 1019.3
20260902091735 70 104 2.0 3.0 0.00 0.00 0.00 97 1019.0
20260902091235 70 101 2.0 3.0 0.00 0.00 0.00 96 1019.0
20260902090735 70 106 2.0 2.0 0.00 0.00 0.00 97 1019.0
20260902090235 70 89 1.0 3.0 0.00 0.00 0.00 97 1019.0
20260902085736 70 100 2.0 3.0 0.00 0.00 0.00 97 1019.0
20260902085236 70 112 2.0 3.0 0.00 0.00 0.00 97 1019.0
20260902084736 70 99 2.0 3.0 0.00 0.00 0.00 97 1019.0
20260902084235 71 93 2.0 3.0 0.00 0.00 0.00 97 1018.6
20260902083735 71 109 2.0 3.0 0.00 0.00 0.00 97 1018.6
20260902083236 71 113 2.0 3.0 0.00 0.00 0.00 97 1019.0
20260902082736 71 109 2.0 3.0 0.00 0.00 0.00 96 1019.0
20260902082235 71 110 2.0 3.0 0.00 0.00 0.00 97 1019.0
20260902081736 71 115 1.0 3.0 0.00 0.00 0.00 97 1019.0
20260902081235 71 99 2.0 2.0 0.00 0.00 0.00 97 1019.0
20260902080735 71 102 2.0 3.0 0.00 0.00 0.00 97 1018.6
20260902080235 71 97 2.0 3.0 0.00 0.00 0.00 96 1018.6
20260902075736 71 97 2.0 3.0 0.00 0.00 0.00 96 1019.0
20260902075236 71 105 2.0 2.0 0.00 0.00 0.00 96 1018.6
20260902074736 71 96 1.0 3.0 0.00 0.00 0.00 96 1018.6
20260902074236 71 99 2.0 3.0 0.00 0.00 0.00 96 1018.6
20260902073736 71 97 2.0 2.0 0.00 0.00 0.00 96 1018.6
20260902073236 71 92 1.0 2.0 0.00 0.00 0.00 95 1018.6
20260902072735 71 91 1.0 2.0 0.00 0.00 0.00 95 1019.0
20260902072236 71 102 2.0 2.0 0.00 0.00 0.00 95 1018.6
20260902071736 71 101 2.0 2.0 0.00 0.00 0.00 95 1018.6
20260902071236 72 111 2.0 2.0 0.00 0.00 0.00 94 1018.6
20260902070736 72 107 2.0 2.0 0.00 0.00 0.00 94 1018.6
20260902070236 72 122 1.0 2.0 0.00 0.00 0.00 94 1018.6
20260902065735 72 110 0.0 2.0 0.00 0.00 0.00 93 1018.6
20260902065236 72 115 2.0 3.0 0.00 0.00 0.00 93 1018.6
20260902064735 72 130 0.0 3.0 0.00 0.00 0.00 94 1018.6
20260902064236 72 140 2.0 2.0 0.00 0.00 0.00 94 1018.6
20260902063736 72 135 1.0 2.0 0.00 0.00 0.00 93 1019.0
20260902063235 72 106 2.0 2.0 0.00 0.00 0.00 93 1018.6
20260902062735 72 102 2.0 2.0 0.00 0.00 0.00 92 1019.0
20260902062236 72 95 1.0 2.0 0.00 0.00 0.00 94 1018.6
20260902061736 72 118 1.0 2.0 0.00 0.00 0.00 93 1018.6
20260902061236 72 107 2.0 2.0 0.00 0.00 0.00 92 1019.0
20260902060736 72 112 2.0 3.0 0.00 0.00 0.00 93 1019.0
20260902060236 72 102 2.0 3.0 0.00 0.00 0.00 93 1019.0
20260902055736 72 130 1.0 3.0 0.00 0.00 0.00 92 1019.0
20260902055235 72 111 3.0 3.0 0.00 0.00 0.00 94 1019.0
20260902054736 72 107 2.0 3.0 0.00 0.00 0.00 95 1019.0
20260902054235 72 109 2.0 3.0 0.00 0.00 0.00 95 1019.3
20260902053736 72 107 2.0 3.0 0.00 0.00 0.00 95 1019.0
20260902053236 72 112 2.0 3.0 0.00 0.00 0.00 95 1019.3
20260902052735 72 106 2.0 3.0 0.00 0.00 0.00 95 1019.0
20260902052236 73 108 2.0 3.0 0.00 0.00 0.00 95 1019.0
20260902051736 73 105 2.0 3.0 0.00 0.00 0.00 95 1019.0
20260902051236 73 107 2.0 3.0 0.00 0.00 0.00 95 1019.3
20260902050736 73 105 2.0 3.0 0.00 0.00 0.00 95 1019.3
20260902050236 73 103 3.0 3.0 0.00 0.00 0.00 95 1019.3
20260902045735 73 99 2.0 3.0 0.00 0.00 0.00 95 1019.0
20260902045237 73 102 2.0 3.0 0.00 0.00 0.00 95 1019.0
20260902044736 73 106 2.0 2.0 0.00 0.00 0.00 95 1019.0
20260902044236 73 113 1.0 2.0 0.00 0.00 0.00 95 1019.0
20260902043735 73 103 1.0 3.0 0.00 0.00 0.00 95 1019.0
20260902043235 73 94 2.0 3.0 0.00 0.00 0.00 95 1019.3
20260902042736 74 125 2.0 3.0 0.00 0.00 0.00 95 1019.3
20260902042236 74 103 2.0 3.0 0.00 0.00 0.00 95 1019.0
20260902041735 74 102 2.0 3.0 0.00 0.00 0.00 95 1019.3
20260902041235 74 114 2.0 3.0 0.00 0.00 0.00 95 1019.3
20260902040736 74 93 2.0 3.0 0.00 0.00 0.00 95 1019.3
20260902040236 74 118 2.0 3.0 0.00 0.00 0.00 95 1019.3
20260902035735 74 101 2.0 2.0 0.00 0.00 0.00 96 1019.3
20260902035234 74 117 2.0 2.0 0.00 0.00 0.00 96 1019.3
20260902034735 74 115 2.0 2.0 0.00 0.00 0.00 96 1019.3
20260902034236 74 99 1.0 2.0 0.00 0.00 0.00 96 1019.3
20260902033736 74 104 2.0 2.0 0.00 0.00 0.00 96 1019.3
20260902033235 74 106 1.0 2.0 0.00 0.00 0.00 96 1019.3
20260902032735 74 129 1.0 2.0 0.00 0.00 0.00 95 1019.3
20260902032236 75 105 2.0 2.0 0.00 0.00 0.00 95 1019.3
20260902031735 75 84 1.0 2.0 0.00 0.00 0.00 95 1019.3
20260902031236 75 95 2.0 2.0 0.00 0.00 0.00 95 1019.3
20260902030736 75 112 2.0 2.0 0.00 0.00 0.00 95 1019.3
20260902030235 75 111 1.0 2.0 0.00 0.00 0.00 94 1019.3
20260902025735 75 115 2.0 2.0 0.00 0.00 0.00 94 1019.3
20260902025236 75 86 1.0 2.0 0.00 0.00 0.00 93 1019.3
20260902024736 75 87 2.0 2.0 0.00 0.00 0.00 93 1019.3
20260902024236 76 101 2.0 2.0 0.00 0.00 0.00 92 1019.3
20260902023736 76 114 2.0 2.0 0.00 0.00 0.00 91 1019.3
20260902023235 76 97 2.0 2.0 0.00 0.00 0.00 92 1019.3
20260902022735 76 97 1.0 2.0 0.00 0.00 0.00 91 1019.3
20260902022236 76 107 1.0 2.0 0.00 0.00 0.00 92 1019.3
20260902021736 76 89 1.0 2.0 0.00 0.00 0.00 93 1019.3
20260902021236 76 106 1.0 2.0 0.00 0.00 0.00 94 1019.3
20260902020735 76 101 2.0 2.0 0.00 0.00 0.00 93 1019.3
20260902020236 77 107 2.0 2.0 0.00 0.00 0.00 93 1019.3
20260902015736 77 91 1.0 2.0 0.00 0.00 0.00 92 1019.3
20260902015235 77 101 2.0 2.0 0.00 0.00 0.00 91 1019.0
20260902014736 77 100 2.0 2.0 0.00 0.00 0.00 91 1019.0
20260902014235 77 94 1.0 2.0 0.00 0.00 0.00 90 1019.0
20260902013735 77 77 1.0 2.0 0.00 0.00 0.00 88 1019.0
20260902013236 77 101 0.0 2.0 0.00 0.00 0.00 90 1019.0
20260902012735 77 113 2.0 2.0 0.00 0.00 0.00 90 1018.6
20260902012236 78 100 1.0 2.0 0.00 0.00 0.00 89 1019.0
20260902011736 78 95 1.0 2.0 0.00 0.00 0.00 88 1018.6
20260902011235 78 99 1.0 2.0 0.00 0.00 0.00 88 1018.6
20260902010736 78 97 1.0 2.0 0.00 0.00 0.00 87 1018.6
20260902010235 78 95 2.0 2.0 0.00 0.00 0.00 86 1018.6
20260902005735 79 106 1.0 2.0 0.00 0.00 0.00 85 1018.6
20260902005235 79 130 0.0 2.0 0.00 0.00 0.00 84 1018.3
20260902004735 80 79 0.0 2.0 0.00 0.00 0.00 84 1018.3
20260902004235 80 54 0.0 2.0 0.00 0.00 0.00 82 1018.3
20260902003735 80 104 0.0 2.0 0.00 0.00 0.00 81 1018.3
20260902003235 81 100 1.0 2.0 0.00 0.00 0.00 80 1018.3
20260902002736 81 105 1.0 2.0 0.00 0.00 0.00 78 1018.3
20260902002235 82 104 0.0 2.0 0.00 0.00 0.00 77 1018.3
20260902001735 82 104 0.0 2.0 0.00 0.00 0.00 78 1018.3
20260902001235 83 108 1.0 2.0 0.00 0.00 0.00 75 1018.3
20260902000736 83 89 1.0 2.0 0.00 0.00 0.00 75 1017.9
20260902000235 85 89 1.0 2.0 0.00 0.00 0.00 72 1018.3
20260901235735 85 117 0.0 1.0 0.00 0.00 0.00 69 1018.3
20260901235235 87 104 0.0 1.0 0.00 0.00 0.00 66 1018.3
20260901234735 88 44 0.0 1.0 0.00 0.00 0.00 63 1018.3
20260901234235 89 50 0.0 0.0 0.00 0.00 0.00 60 1018.3
20260901233736 90 75 0.0 0.0 0.00 0.00 0.00 59 1017.9
20260901233235 90 75 0.0 1.0 0.00 0.00 0.00 60 1018.3
20260901232735 90 106 0.0 2.0 0.00 0.00 0.00 59 1018.3
20260901232236 92 84 1.0 2.0 0.00 0.00 0.00 56 1017.9
20260901231736 92 44 0.0 0.0 0.00 0.00 0.00 57 1017.9
20260901231235 93 44 0.0 1.0 0.00 0.00 0.00 56 1018.3
20260901230736 93 50 0.0 2.0 0.00 0.00 0.00 58 1017.9
20260901230236 93 112 1.0 2.0 0.00 0.00 0.00 57 1017.9
20260901225735 93 116 1.0 2.0 0.00 0.00 0.00 55 1018.3
20260901225235 93 83 0.0 2.0 0.00 0.00 0.00 57 1017.9
20260901224735 94 119 2.0 3.0 0.00 0.00 0.00 55 1018.3
20260901224235 93 73 1.0 3.0 0.00 0.00 0.00 55 1018.3
20260901223735 93 135 0.0 2.0 0.00 0.00 0.00 56 1017.9
20260901223236 93 245 1.0 2.0 0.00 0.00 0.00 57 1017.9
20260901222735 93 75 0.0 3.0 0.00 0.00 0.00 56 1018.3
20260901222235 93 120 2.0 3.0 0.00 0.00 0.00 52 1018.3
20260901221736 93 106 2.0 5.0 0.00 0.00 0.00 50 1017.9
20260901221235 93 74 0.0 5.0 0.00 0.00 0.00 52 1017.9
20260901220735 93 217 0.0 2.0 0.00 0.00 0.00 52 1017.9
20260901220235 93 9 0.0 2.0 0.00 0.00 0.00 51 1017.9
20260901215735 93 55 0.0 3.0 0.00 0.00 0.00 57 1017.9
20260901215235 92 117 0.0 3.0 0.00 0.00 0.00 52 1017.9
20260901214736 91 43 2.0 2.0 0.00 0.00 0.00 64 1017.9
20260901214236 91 44 0.0 2.0 0.00 0.00 0.00 60 1017.9
20260901213735 91 62 0.0 2.0 0.00 0.00 0.00 62 1017.9
20260901213235 90 255 0.0 2.0 0.00 0.00 0.00 65 1018.3
20260901212735 90 98 0.0 3.0 0.00 0.00 0.00 62 1017.9
20260901212236 91 0.0 4.0 0.00 0.00 0.00 60 1017.9
20260901211713 93 116 0.0 4.0 0.00 0.00 0.00 57 1017.9
20260901211212 94 323 0.0 4.0 0.00 0.00 0.00 54 1017.9
20260901210712 94 69 3.0 4.0 0.00 0.00 0.00 54 1018.3
20260901210213 94 55 2.0 4.0 0.00 0.00 0.00 55 1018.3
20260901205712 94 46 0.0 3.0 0.00 0.00 0.00 50 1018.3
20260901205213 93 155 1.0 7.0 0.00 0.00 0.00 51 1018.3
20260901204712 93 27 0.0 7.0 0.00 0.00 0.00 51 1018.3
20260901204213 93 134 3.0 5.0 0.00 0.00 0.00 52 1018.3
20260901203714 93 140 2.0 5.0 0.00 0.00 0.00 51 1018.3
20260901203212 93 77 1.0 5.0 0.00 0.00 0.00 53 1018.3
20260901202713 93 135 0.0 5.0 0.00 0.00 0.00 50 1018.6
20260901202213 93 102 2.0 4.0 0.00 0.00 0.00 54 1018.6
20260901201714 94 52 3.0 4.0 0.00 0.00 0.00 52 1018.3
20260901201214 94 358 2.0 5.0 0.00 0.00 0.00 56 1018.6
20260901200715 93 321 1.0 5.0 0.00 0.00 0.00 57 1018.3
20260901200214 93 38 2.0 4.0 0.00 0.00 0.00 56 1018.6
20260901195713 92 11 0.0 3.0 0.00 0.00 0.00 57 1018.3
20260901195212 91 32 1.0 3.0 0.00 0.00 0.00 58 1018.6
20260901194713 91 343 0.0 3.0 0.00 0.00 0.00 61 1018.6
20260901194213 91 336 0.0 5.0 0.00 0.00 0.00 58 1019.0
20260901193714 92 259 1.0 5.0 0.00 0.00 0.00 55 1019.0
20260901193213 94 281 3.0 4.0 0.00 0.00 0.00 52 1018.6
20260901192714 93 204 0.0 3.0 0.00 0.00 0.00 52 1018.6
20260901192213 92 54 2.0 4.0 0.00 0.00 0.00 55 1019.0
20260901191714 91 123 3.0 5.0 0.00 0.00 0.00 52 1019.0
20260901191214 92 335 2.0 5.0 0.00 0.00 0.00 52 1019.0
20260901190713 92 340 2.0 4.0 0.00 0.00 0.00 51 1019.3
20260901190213 92 292 3.0 5.0 0.00 0.00 0.00 53 1019.0
20260901185712 92 101 2.0 6.0 0.00 0.00 0.00 52 1019.3
20260901185212 92 29 3.0 6.0 0.00 0.00 0.00 54 1019.3
20260901184712 93 27 3.0 5.0 0.00 0.00 0.00 51 1019.3
20260901184213 93 97 5.0 5.0 0.00 0.00 0.00 54 1019.3
20260901183713 93 345 0.0 4.0 0.00 0.00 0.00 54 1019.3
20260901183212 93 287 2.0 4.0 0.00 0.00 0.00 52 1019.3
20260901182712 93 346 2.0 5.0 0.00 0.00 0.00 53 1019.7
20260901182213 93 343 5.0 5.0 0.00 0.00 0.00 56 1019.7
20260901181712 93 210 1.0 5.0 0.00 0.00 0.00 53 1019.7
20260901181213 93 2.0 5.0 0.00 0.00 0.00 58 1020.0
20260901180712 92 32 3.0 5.0 0.00 0.00 0.00 55 1019.7
20260901180213 91 156 0.0 3.0 0.00 0.00 0.00 56 1020.0
20260901175712 91 93 2.0 3.0 0.00 0.00 0.00 57 1020.0
20260901175212 93 17 0.0 4.0 0.00 0.00 0.00 55 1020.0
20260901174712 93 261 2.0 4.0 0.00 0.00 0.00 54 1020.0
20260901174212 92 227 2.0 6.0 0.00 0.00 0.00 54 1020.0
20260901173712 92 330 0.0 6.0 0.00 0.00 0.00 56 1020.0
20260901173213 93 248 3.0 4.0 0.00 0.00 0.00 54 1020.0
20260901172712 93 195 1.0 4.0 0.00 0.00 0.00 56 1020.0
20260901172213 93 160 0.0 4.0 0.00 0.00 0.00 54 1020.4
20260901171713 91 205 0.0 4.0 0.00 0.00 0.00 56 1020.4
20260901171213 91 347 3.0 4.0 0.00 0.00 0.00 59 1020.7
20260901170713 90 358 0.0 3.0 0.00 0.00 0.00 58 1020.7
20260901170212 90 245 2.0 3.0 0.00 0.00 0.00 60 1020.7
20260901165712 91 315 1.0 4.0 0.00 0.00 0.00 57 1020.7
20260901165212 91 146 2.0 4.0 0.00 0.00 0.00 56 1020.7
20260901164713 92 272 1.0 3.0 0.00 0.00 0.00 58 1020.7
20260901164212 91 332 2.0 3.0 0.00 0.00 0.00 58 1020.7
20260901163712 90 208 1.0 3.0 0.00 0.00 0.00 63 1021.1
20260901163212 89 67 2.0 3.0 0.00 0.00 0.00 64 1020.7
20260901162712 89 269 0.0 4.0 0.00 0.00 0.00 62 1020.7
20260901162212 90 275 1.0 4.0 0.00 0.00 0.00 59 1021.1
20260901161715 92 175 0.0 4.0 0.00 0.00 0.00 57 1020.7
20260901161213 91 121 1.0 4.0 0.00 0.00 0.00 57 1021.1
20260901160717 91 269 0.0 4.0 0.00 0.00 0.00 58 1021.1
20260901160213 91 167 2.0 4.0 0.00 0.00 0.00 59 1021.1
20260901155712 90 121 0.0 5.0 0.00 0.00 0.00 63 1020.7
20260901155212 90 161 1.0 5.0 0.00 0.00 0.00 60 1021.4
20260901154713 90 285 5.0 6.0 0.00 0.00 0.00 59 1021.1
20260901154212 90 67 2.0 6.0 0.00 0.00 0.00 60 1021.4
20260901153712 90 220 0.0 5.0 0.00 0.00 0.00 61 1021.1
20260901153213 90 215 2.0 5.0 0.00 0.00 0.00 60 1021.1
20260901152713 89 211 2.0 5.0 0.00 0.00 0.00 61 1021.4
20260901152213 89 233 1.0 5.0 0.00 0.00 0.00 60 1021.1
20260901151712 90 238 3.0 5.0 0.00 0.00 0.00 59 1021.1
20260901151213 90 194 1.0 5.0 0.00 0.00 0.00 65 1021.1
20260901150713 90 214 0.0 5.0 0.00 0.00 0.00 63 1021.1
20260901150212 89 204 2.0 4.0 0.00 0.00 0.00 61 1021.1
20260901145712 89 161 2.0 5.0 0.00 0.00 0.00 62 1021.1
20260901145211 88 145 3.0 5.0 0.00 0.00 0.00 64 1021.4
20260901144712 90 224 0.0 3.0 0.00 0.00 0.00 64 1021.1
20260901144212 89 166 0.0 3.0 0.00 0.00 0.00 65 1021.1
20260901143712 88 137 0.0 3.0 0.00 0.00 0.00 68 1021.4
20260901143212 87 195 1.0 3.0 0.00 0.00 0.00 67 1021.1
20260901142712 88 189 0.0 2.0 0.00 0.00 0.00 69 1021.4
20260901142213 88 284 0.0 2.0 0.00 0.00 0.00 65 1021.4
20260901141712 87 117 0.0 3.0 0.00 0.00 0.00 71 1021.4
20260901141214 86 223 1.0 3.0 0.00 0.00 0.00 68 1021.4
20260901140713 86 163 1.0 3.0 0.00 0.00 0.00 70 1021.4
20260901140212 85 189 1.0 4.0 0.00 0.00 0.00 71 1021.1
20260901135712 85 235 3.0 4.0 0.00 0.00 0.00 70 1021.8
20260901135213 86 259 2.0 2.0 0.00 0.00 0.00 69 1021.4
20260901134713 85 129 0.0 3.0 0.00 0.00 0.00 72 1021.4
20260901134212 86 193 2.0 3.0 0.00 0.00 0.00 69 1021.4
20260901133712 86 127 2.0 3.0 0.00 0.00 0.00 70 1021.4
20260901133213 85 127 2.0 4.0 0.00 0.00 0.00 72 1021.4
20260901132712 84 130 1.0 4.0 0.00 0.00 0.00 74 1021.4
20260901132212 84 134 0.0 5.0 0.00 0.00 0.00 75 1021.4
20260901131713 83 150 3.0 5.0 0.00 0.00 0.00 76 1021.4
20260901131212 82 161 2.0 4.0 0.00 0.00 0.00 76 1021.4
20260901130713 81 144 1.0 4.0 0.00 0.00 0.00 81 1021.4
20260901130212 81 130 2.0 5.0 0.00 0.00 0.00 80 1021.4
20260901125713 80 164 2.0 5.0 0.00 0.00 0.00 83 1021.1
20260901125212 79 133 3.0 4.0 0.00 0.01 0.00 84 1021.1
20260901124712 77 96 3.0 4.0 0.00 0.01 0.00 87 1021.4
20260901124212 76 144 3.0 4.0 0.00 0.01 0.00 87 1021.1
20260901123713 75 98 3.0 4.0 0.00 0.01 0.00 89 1021.1
20260901123212 74 92 3.0 5.0 0.00 0.01 0.00 93 1021.4